Powrót do katalogu

TJS-26A

AktywnyGEO
NORAD 69674·PAYLOAD·🇨🇳 China

Wystrzelony Jun 23, 2026 z Wenchang Space Launch Site

Loading…

TLE

ŚwieżeSource: Space-Track

Epoka: Sep 14, 2026, 14:18 UTC

1 69674U 26144A   26257.59642110 -.00000359  00000-0  00000-0 0  9997
2 69674   6.8625 323.2138 0006091 341.5000  11.0839  1.00275186   835

Śledź TJS-26A w czasie rzeczywistym z AllMySat

Download on the App Store